FW1563 Houston TX US current weather conditions

sailwx.info

Wind from 350 at 4 knots gusting 12

Air temperature 15.0° C
Dewpoint 4.1° C

Last reported at 2019-Dec-11 21:03 UTC.
Time now 2019-Dec-11 21:40 UTC

Location: N 29°39' W 095°08'.
View on Google Maps.

See reports from other nearby stations

  
Tides and Currents Weather Stations Pressure Air Temp Water Temp Dewpoint Dewpoint Depression Visibility Wind Speed Wind Dir Waves Ship Positions
date/time (UTC)wind fromknots sea level pressurealtimeterstation pressurevisibilityair tempwater tempwave heightnotes
2019-Dec-11 21:03 350 4 gusting 12 15.0
2019-Dec-11 20:53 023 4 gusting 13 15.0
2019-Dec-11 20:48 061 5 gusting 10 15.0
2019-Dec-11 20:43 049 5 gusting 9 15.0
2019-Dec-11 20:38 036 4 gusting 9 15.0
2019-Dec-11 20:33 344 5 gusting 13 15.0
2019-Dec-11 20:28 074 4 gusting 13 15.0
2019-Dec-11 20:23 061 4 gusting 12 15.0
2019-Dec-11 20:18 351 4 gusting 12 14.4
2019-Dec-11 20:13 005 4 gusting 9 15.0
2019-Dec-11 20:08 046 5 gusting 12 14.4
2019-Dec-11 20:03 342 5 gusting 12 14.4
2019-Dec-11 19:58 013 4 gusting 12 14.4
2019-Dec-11 19:53 319 4 gusting 12 14.4
2019-Dec-11 19:48 344 4 gusting 12 14.4
2019-Dec-11 19:43 123 5 gusting 12 14.4
2019-Dec-11 19:33 028 3 gusting 12 14.4
2019-Dec-11 19:28 049 4 gusting 11 13.9
2019-Dec-11 19:23 091 4 gusting 11 13.3
2019-Dec-11 19:18 350 4 gusting 9 13.3
2019-Dec-11 19:13 355 4 gusting 10 13.3
2019-Dec-11 19:08 086 4 gusting 10 13.3
2019-Dec-11 19:03 317 4 gusting 10 13.3
2019-Dec-11 18:58 063 4 gusting 10 12.8
2019-Dec-11 18:53 112 4 gusting 12 12.8
2019-Dec-11 18:48 127 4 gusting 12 12.8
2019-Dec-11 18:43 050 4 gusting 8 12.8
2019-Dec-11 18:38 030 4 gusting 8 12.8
2019-Dec-11 18:33 009 4 gusting 13 12.2
2019-Dec-11 18:27 12.2
2019-Dec-11 18:22 015 5 gusting 11 12.2
2019-Dec-11 18:17 035 4 gusting 11 12.2
2019-Dec-11 18:13 080 4 gusting 11 12.2
2019-Dec-11 18:08 355 3 gusting 9 11.7
2019-Dec-11 18:03 11.7
2019-Dec-11 17:58 030 5 gusting 10 11.7
2019-Dec-11 17:52 054 5 gusting 13 11.7
2019-Dec-11 17:47 005 4 gusting 13 11.1
2019-Dec-11 17:42 028 5 gusting 13 11.1
2019-Dec-11 17:37 015 4 gusting 13 11.1
2019-Dec-11 17:32 039 4 gusting 9 10.6
2019-Dec-11 17:27 355 5 gusting 11 10.6
2019-Dec-11 17:22 355 5 gusting 11 10.6
2019-Dec-11 17:17 316 4 gusting 10 10.6
2019-Dec-11 17:12 005 4 gusting 10 10.0
2019-Dec-11 17:07 325 5 gusting 10 10.0
2019-Dec-11 17:02 285 6 gusting 13 10.0
2019-Dec-11 16:57 012 5 gusting 13 10.0
2019-Dec-11 16:52 012 5 gusting 11 10.0
2019-Dec-11 16:47 348 5 gusting 11 9.4
2019-Dec-11 16:42 005 5 gusting 10 9.4
2019-Dec-11 16:37 046 5 gusting 10 9.4
2019-Dec-11 16:32 047 4 gusting 12 9.4
2019-Dec-11 16:27 088 4 gusting 12 9.4
2019-Dec-11 16:22 049 3 gusting 11 9.4
2019-Dec-11 16:17 109 3 gusting 9 8.9
2019-Dec-11 16:12 318 3 gusting 9 8.9
2019-Dec-11 16:07 005 4 gusting 9 8.3
2019-Dec-11 16:02 302 4 gusting 9 8.3
2019-Dec-11 15:57 323 4 gusting 10 8.3
2019-Dec-11 15:52 8.3
2019-Dec-11 15:47 8.3
2019-Dec-11 15:42 333 4 gusting 9 7.8
2019-Dec-11 15:37 038 4 gusting 9 7.8
2019-Dec-11 15:32 005 4 gusting 9 7.8
2019-Dec-11 15:27 005 5 gusting 9 7.8
2019-Dec-11 15:22 025 4 gusting 9 7.8
2019-Dec-11 15:17 342 3 gusting 7 7.2
2019-Dec-11 15:12 7.2
2019-Dec-11 15:07 093 5 gusting 12 7.2
2019-Dec-11 15:02 009 5 gusting 10 7.2
2019-Dec-11 14:57 022 5 gusting 10 7.2
2019-Dec-11 14:52 355 4 gusting 9 7.2
2019-Dec-11 14:47 044 3 gusting 8 7.2
2019-Dec-11 14:42 030 3 gusting 7 7.2
2019-Dec-11 14:37 350 4 gusting 9 6.7
2019-Dec-11 14:32 053 5 gusting 10 6.7
2019-Dec-11 14:27 029 6 gusting 13 6.7
2019-Dec-11 14:22 046 4 gusting 13 6.7
2019-Dec-11 14:17 031 4 gusting 10 6.7
2019-Dec-11 14:12 019 5 gusting 10 6.1
2019-Dec-11 14:07 063 4 gusting 10 6.1
2019-Dec-11 14:02 005 3 gusting 10 6.1
2019-Dec-11 13:57 034 4 gusting 14 6.1
2019-Dec-11 13:52 019 4 gusting 14 6.1
2019-Dec-11 13:47 041 3 gusting 11 6.1
2019-Dec-11 13:42 022 4 gusting 13 6.1
2019-Dec-11 13:37 025 6 gusting 13 6.1
2019-Dec-11 13:32 028 5 gusting 10 6.1
2019-Dec-11 13:27 048 4 gusting 12 6.1
2019-Dec-11 13:22 084 5 gusting 12 6.1
2019-Dec-11 13:17 034 6 gusting 12 6.1
2019-Dec-11 13:12 344 5 gusting 12 6.1
2019-Dec-11 13:07 302 5 gusting 13 6.1
2019-Dec-11 13:02 349 4 gusting 13 6.1
2019-Dec-11 12:57 038 5 gusting 11 6.7
2019-Dec-11 12:52 046 5 gusting 13 6.7
2019-Dec-11 12:47 005 4 gusting 13 6.7
2019-Dec-11 12:42 005 4 gusting 7 6.7
2019-Dec-11 12:37 061 4 gusting 11 6.7
2019-Dec-11 12:32 026 3 gusting 11 6.7
2019-Dec-11 12:27 034 3 gusting 8 6.7
2019-Dec-11 12:22 035 5 gusting 10 6.7
2019-Dec-11 12:17 325 4 gusting 10 6.7
2019-Dec-11 12:12 044 4 gusting 11 6.7
2019-Dec-11 12:07 036 4 gusting 11 6.7
2019-Dec-11 12:02 074 4 gusting 13 6.7
2019-Dec-11 11:57 014 5 gusting 13 6.7
2019-Dec-11 11:52 019 4 gusting 12 6.7
2019-Dec-11 11:47 351 4 gusting 11 6.7
2019-Dec-11 11:42 031 5 gusting 11 6.7
2019-Dec-11 11:37 040 5 gusting 15 6.7
2019-Dec-11 11:32 032 5 gusting 15 6.7
2019-Dec-11 11:27 336 5 gusting 12 6.7
2019-Dec-11 11:22 013 5 gusting 12 6.7
2019-Dec-11 11:17 043 6 gusting 10 6.7
2019-Dec-11 11:12 085 6 gusting 13 6.7
2019-Dec-11 11:06 027 5 gusting 13 6.7
2019-Dec-11 11:01 011 4 gusting 11 6.7
2019-Dec-11 10:56 355 4 gusting 12 7.2
2019-Dec-11 10:52 348 3 gusting 12 7.2
2019-Dec-11 10:46 027 4 gusting 12 7.2
2019-Dec-11 10:41 7.2
2019-Dec-11 10:36 049 4 gusting 12 7.2
2019-Dec-11 10:31 014 4 gusting 12 7.2
2019-Dec-11 10:26 005 4 gusting 12 7.2
2019-Dec-11 10:21 028 5 gusting 12 7.2
2019-Dec-11 10:16 016 4 gusting 10 7.2
2019-Dec-11 10:11 040 4 gusting 10 6.7
2019-Dec-11 10:06 345 4 gusting 10 6.7
2019-Dec-11 10:01 005 4 gusting 10 6.7
2019-Dec-11 09:56 089 4 gusting 11 6.7
2019-Dec-11 09:51 039 4 gusting 12 7.2
2019-Dec-11 09:46 017 4 gusting 12 6.7
2019-Dec-11 09:41 040 4 gusting 11 6.7
2019-Dec-11 09:36 086 5 gusting 11 7.2
2019-Dec-11 09:31 030 4 gusting 9 7.2
2019-Dec-11 09:26 046 3 gusting 9 7.2
2019-Dec-11 09:21 7.2
2019-Dec-11 09:16 022 5 gusting 10 7.2
2019-Dec-11 09:11 037 5 gusting 13 7.2
2019-Dec-11 09:06 019 6 gusting 13 7.2
2019-Dec-11 09:01 355 5 gusting 12 7.2
2019-Dec-11 08:56 015 4 gusting 12 7.2
2019-Dec-11 08:51 355 5 gusting 15 7.2
2019-Dec-11 08:46 032 6 gusting 15 7.2
2019-Dec-11 08:41 022 5 gusting 13 7.2
2019-Dec-11 08:36 355 5 gusting 12 7.2
2019-Dec-11 08:31 016 5 gusting 13 7.2
2019-Dec-11 08:26 047 5 gusting 13 7.2
2019-Dec-11 08:21 064 6 gusting 12 7.2
2019-Dec-11 08:16 351 6 gusting 12 7.2
2019-Dec-11 08:11 7.2
2019-Dec-11 08:06 315 5 gusting 11 7.2
2019-Dec-11 08:01 047 5 gusting 10 7.2
2019-Dec-11 07:56 336 5 gusting 13 7.8
2019-Dec-11 07:51 035 5 gusting 13 7.8
2019-Dec-11 07:46 304 4 gusting 11 7.8
2019-Dec-11 07:41 053 4 gusting 11 7.8
2019-Dec-11 07:36 346 5 gusting 11 7.8
2019-Dec-11 07:31 351 6 gusting 12 7.8
2019-Dec-11 07:26 7.8
2019-Dec-11 07:21 036 4 gusting 13 7.8
2019-Dec-11 07:16 073 6 gusting 13 7.8
2019-Dec-11 07:11 042 6 gusting 13 7.8
2019-Dec-11 07:06 7.8
2019-Dec-11 07:01 355 5 gusting 12 7.8
2019-Dec-11 06:56 070 5 gusting 13 7.8
2019-Dec-11 06:51 341 6 gusting 13 7.8
2019-Dec-11 06:46 005 6 gusting 13 7.8
2019-Dec-11 06:41 011 5 gusting 12 7.8
2019-Dec-11 06:36 015 5 gusting 12 7.8
2019-Dec-11 06:31 023 6 gusting 13 7.8
2019-Dec-11 06:26 031 6 gusting 13 7.8
2019-Dec-11 06:21 029 6 gusting 16 7.8
2019-Dec-11 06:16 063 6 gusting 16 7.8
2019-Dec-11 06:11 035 6 gusting 16 7.8
2019-Dec-11 06:06 068 6 gusting 14 7.8
2019-Dec-11 06:01 009 6 gusting 14 7.8
2019-Dec-11 05:56 340 6 gusting 14 7.8
2019-Dec-11 05:51 017 5 gusting 14 8.3
2019-Dec-11 05:46 355 6 gusting 13 8.3
2019-Dec-11 05:41 017 6 gusting 13 8.3
2019-Dec-11 05:36 060 6 gusting 13 8.3
2019-Dec-11 05:31 340 6 gusting 14 8.3
2019-Dec-11 05:26 013 6 gusting 14 8.3
2019-Dec-11 05:21 022 6 gusting 14 8.3
2019-Dec-11 05:16 044 6 gusting 14 8.3
2019-Dec-11 05:11 017 6 gusting 15 8.3
2019-Dec-11 05:06 355 6 gusting 15 8.3
2019-Dec-11 05:01 049 7 gusting 15 8.3
2019-Dec-11 04:56 334 6 gusting 15 8.3
2019-Dec-11 04:51 005 6 gusting 14 8.3
2019-Dec-11 04:46 355 6 gusting 13 8.3
2019-Dec-11 04:41 340 5 gusting 13 8.3
2019-Dec-11 04:35 013 6 gusting 13 8.9
2019-Dec-11 04:31 032 6 gusting 17 8.9
2019-Dec-11 04:25 8.9
2019-Dec-11 04:20 037 7 gusting 15 8.9
2019-Dec-11 04:15 026 6 gusting 16 8.9
2019-Dec-11 04:10 051 6 gusting 16 8.9
2019-Dec-11 04:05 005 5 gusting 13 8.9
2019-Dec-11 04:00 053 5 gusting 13 8.9
2019-Dec-11 03:55 033 6 gusting 15 8.9
2019-Dec-11 03:50 024 6 gusting 15 8.9
2019-Dec-11 03:45 005 6 gusting 14 8.9
2019-Dec-11 03:40 048 6 gusting 18 8.9
2019-Dec-11 03:35 030 6 gusting 18 8.9
2019-Dec-11 03:30 024 6 gusting 14 8.9
2019-Dec-11 03:25 032 6 gusting 14 8.9
2019-Dec-11 03:20 355 6 gusting 13 8.9
2019-Dec-11 03:15 355 6 gusting 13 8.9
2019-Dec-11 03:10 022 6 gusting 13 8.9
2019-Dec-11 03:05 9.4
2019-Dec-11 03:00 096 5 gusting 12 9.4
2019-Dec-11 02:55 005 6 gusting 12 9.4
2019-Dec-11 02:50 355 4 gusting 12 9.4
2019-Dec-11 02:45 355 3 gusting 10 9.4
2019-Dec-11 02:40 005 4 gusting 11 9.4
2019-Dec-11 02:35 341 5 gusting 13 9.4
2019-Dec-11 02:30 9.4
2019-Dec-11 02:25 022 6 gusting 13 9.4
2019-Dec-11 02:20 042 6 gusting 13 9.4
2019-Dec-11 02:15 317 6 gusting 13 9.4
2019-Dec-11 02:10 338 6 gusting 13 9.4
2019-Dec-11 02:05 342 6 gusting 13 9.4
2019-Dec-11 02:00 016 6 gusting 13 9.4
2019-Dec-11 01:55 344 6 gusting 13 9.4
2019-Dec-11 01:50 005 6 gusting 13 9.4
2019-Dec-11 01:45 030 5 gusting 11 9.4
2019-Dec-11 01:40 017 5 gusting 11 9.4
2019-Dec-11 01:35 005 5 gusting 12 9.4
2019-Dec-11 01:30 321 6 gusting 13 9.4
2019-Dec-11 01:25 027 6 gusting 13 9.4
2019-Dec-11 01:20 334 5 gusting 13 9.4
2019-Dec-11 01:15 9.4
2019-Dec-11 01:10 022 5 gusting 13 9.4
2019-Dec-11 01:05 050 5 gusting 13 9.4
2019-Dec-11 01:00 023 5 gusting 13 9.4
2019-Dec-11 00:55 034 5 gusting 13 10.0
2019-Dec-11 00:50 013 4 gusting 10 10.0
2019-Dec-11 00:45 044 4 gusting 13 10.0
2019-Dec-11 00:40 015 6 gusting 13 10.0
2019-Dec-11 00:35 019 5 gusting 12 10.0
2019-Dec-11 00:30 009 6 gusting 18 10.0
2019-Dec-11 00:25 039 6 gusting 18 10.0
2019-Dec-11 00:20 039 6 gusting 13 10.0
2019-Dec-11 00:15 028 5 gusting 13 10.0
2019-Dec-11 00:10 073 5 gusting 15 10.0
2019-Dec-11 00:05 028 6 gusting 15 10.0
2019-Dec-11 00:00 057 5 gusting 12 10.0
2019-Dec-10 23:55 022 6 gusting 13 10.0
2019-Dec-10 23:50 346 6 gusting 15 10.0
2019-Dec-10 23:45 355 6 gusting 15 10.0
2019-Dec-10 23:40 040 6 gusting 15 10.0
2019-Dec-10 23:35 044 6 gusting 15 10.0
2019-Dec-10 23:30 036 5 gusting 12 10.0
2019-Dec-10 23:25 012 6 gusting 17 10.0
2019-Dec-10 23:20 026 6 gusting 17 10.0
2019-Dec-10 23:15 053 6 gusting 14 10.0
2019-Dec-10 23:10 017 5 gusting 13 10.0
2019-Dec-10 23:05 028 6 gusting 15 10.0
2019-Dec-10 23:00 010 6 gusting 15 10.0
2019-Dec-10 22:55 355 7 gusting 13 10.0
2019-Dec-10 22:50 021 6 gusting 14 10.0
2019-Dec-10 22:45 045 6 gusting 14 10.0
2019-Dec-10 22:40 009 6 gusting 15 10.0
2019-Dec-10 22:35 038 6 gusting 15 10.0
2019-Dec-10 22:30 028 6 gusting 13 10.0
2019-Dec-10 22:25 345 6 gusting 13 10.0
2019-Dec-10 22:20 091 6 gusting 13 10.0
2019-Dec-10 22:15 034 7 gusting 17 10.0
2019-Dec-10 22:10 053 6 gusting 17 10.0
2019-Dec-10 22:05 094 5 gusting 13 10.0
2019-Dec-10 22:00 026 6 gusting 13 10.6
2019-Dec-10 21:54 048 6 gusting 14 10.6
2019-Dec-10 21:49 10.6
2019-Dec-10 21:45 269 6 gusting 16 10.6
2019-Dec-10 21:40 022 8 gusting 16 10.6
2019-Dec-10 21:34 028 9 gusting 16 10.6
2019-Dec-10 21:29 049 8 gusting 16 10.6
2019-Dec-10 21:24 005 7 gusting 17 10.6
2019-Dec-10 21:19 015 6 gusting 17 10.6
2019-Dec-10 21:14 092 6 gusting 15 10.6
2019-Dec-10 21:09 066 7 gusting 16 10.6
2019-Dec-10 21:04 040 6 gusting 16 10.6
2019-Dec-10 20:59 025 6 gusting 15 10.6
2019-Dec-10 20:54 005 6 gusting 15 10.6
2019-Dec-10 20:49 009 6 gusting 13 10.6
2019-Dec-10 20:44 026 6 gusting 15 10.6
2019-Dec-10 20:39 014 6 gusting 15 10.6
2019-Dec-10 20:34 355 6 gusting 13 10.6
2019-Dec-10 20:29 026 6 gusting 13 10.6
2019-Dec-10 20:24 347 6 gusting 13 10.6
2019-Dec-10 20:19 009 6 gusting 16 10.6
2019-Dec-10 20:14 034 6 gusting 17 10.6
2019-Dec-10 20:09 024 6 gusting 17 10.6
2019-Dec-10 20:04 053 6 gusting 14 10.6
2019-Dec-10 19:59 034 6 gusting 17 10.6
2019-Dec-10 19:54 047 6 gusting 17 10.6
2019-Dec-10 19:49 019 6 gusting 14 10.6
2019-Dec-10 19:44 355 7 gusting 19 10.6
2019-Dec-10 19:39 013 7 gusting 19 10.6
2019-Dec-10 19:34 084 6 gusting 14 10.6
2019-Dec-10 19:29 042 7 gusting 15 10.6
2019-Dec-10 19:24 10.6
2019-Dec-10 19:19 355 6 gusting 15 10.6
2019-Dec-10 19:14 355 6 gusting 15 11.1
2019-Dec-10 19:09 063 6 gusting 15 11.1
2019-Dec-10 19:04 015 6 gusting 15 10.6
2019-Dec-10 18:59 005 6 gusting 14 11.1
2019-Dec-10 18:54 340 6 gusting 14 11.1
2019-Dec-10 18:49 030 6 gusting 14 11.1
2019-Dec-10 18:44 024 7 gusting 17 11.1
2019-Dec-10 18:39 328 8 gusting 17 11.1
2019-Dec-10 18:34 336 8 gusting 19 11.1
2019-Dec-10 18:29 331 7 gusting 19 11.1
2019-Dec-10 18:24 057 8 gusting 18 11.1
2019-Dec-10 18:19 026 9 gusting 22 11.1
2019-Dec-10 18:14 054 9 gusting 22 11.1
2019-Dec-10 18:09 011 8 gusting 19 11.1
2019-Dec-10 18:04 034 8 gusting 19 11.1
2019-Dec-10 17:59 322 8 gusting 19 11.1
2019-Dec-10 17:54 355 6 gusting 15 11.1
2019-Dec-10 17:49 009 7 gusting 18 11.1
2019-Dec-10 17:44 015 9 gusting 21 11.1
2019-Dec-10 17:39 040 9 gusting 21 11.1
2019-Dec-10 17:34 005 9 gusting 19 11.1
2019-Dec-10 17:29 355 6 gusting 19 11.1
2019-Dec-10 17:24 346 6 gusting 18 11.1
2019-Dec-10 17:19 052 9 gusting 19 11.1
2019-Dec-10 17:14 076 8 gusting 19 11.1
2019-Dec-10 17:09 085 7 gusting 16 11.1
2019-Dec-10 17:04 032 6 gusting 16 11.1
2019-Dec-10 16:59 023 6 gusting 17 11.1
2019-Dec-10 16:54 083 6 gusting 17 11.1
2019-Dec-10 16:49 014 6 gusting 14 11.1
2019-Dec-10 16:44 11.1
2019-Dec-10 16:39 098 6 gusting 15 11.1
2019-Dec-10 16:34 355 7 gusting 17 11.1
2019-Dec-10 16:29 101 7 gusting 17 11.1
2019-Dec-10 16:24 042 6 gusting 16 11.1
2019-Dec-10 16:19 092 6 gusting 16 11.1
2019-Dec-10 16:14 013 6 gusting 15 11.1
2019-Dec-10 16:09 041 6 gusting 14 11.1
2019-Dec-10 16:03 062 5 gusting 12 11.1
2019-Dec-10 15:58 009 6 gusting 16 11.1
2019-Dec-10 15:53 005 7 gusting 20 11.1
2019-Dec-10 15:48 355 7 gusting 20 11.1
2019-Dec-10 15:43 005 5 gusting 19 11.1
2019-Dec-10 15:38 056 6 gusting 12 11.1
2019-Dec-10 15:33 11.1
2019-Dec-10 15:28 306 6 gusting 13 11.1
2019-Dec-10 15:23 328 6 gusting 12 11.1
2019-Dec-10 15:18 017 6 gusting 13 11.1
2019-Dec-10 15:13 329 6 gusting 14 11.1
2019-Dec-10 15:08 014 6 gusting 14 11.1
2019-Dec-10 15:03 11.1
2019-Dec-10 14:58 335 6 gusting 13 11.1
2019-Dec-10 14:53 033 6 gusting 14 11.1
2019-Dec-10 14:48 340 6 gusting 14 11.1
2019-Dec-10 14:43 022 6 gusting 14 11.1
2019-Dec-10 14:38 033 5 gusting 13 11.7
2019-Dec-10 14:33 023 6 gusting 13 11.7
2019-Dec-10 14:28 327 6 gusting 13 11.7
2019-Dec-10 14:23 046 6 gusting 13 11.7
2019-Dec-10 14:18 005 5 gusting 13 11.7
2019-Dec-10 14:13 026 5 gusting 10 11.7
2019-Dec-10 14:08 343 4 gusting 9 11.7
2019-Dec-10 14:03 347 5 gusting 13 12.2
2019-Dec-10 13:58 333 6 gusting 17 12.2
2019-Dec-10 13:53 019 8 gusting 17 12.2
2019-Dec-10 13:48 005 7 gusting 17 12.2
2019-Dec-10 13:43 014 6 gusting 17 12.2
2019-Dec-10 13:38 341 6 gusting 20 12.8
2019-Dec-10 13:33 010 7 gusting 20 12.8
2019-Dec-10 13:28 042 8 gusting 20 13.3
2019-Dec-10 13:23 355 7 gusting 20 13.3
2019-Dec-10 13:18 051 6 gusting 16 13.3
2019-Dec-10 13:13 087 7 gusting 16 13.3
2019-Dec-10 13:08 016 8 gusting 17 13.3
2019-Dec-10 13:03 355 8 gusting 17 13.3
2019-Dec-10 12:58 005 9 gusting 19 13.9
2019-Dec-10 12:53 045 10 gusting 23 13.9
2019-Dec-10 12:48 027 10 gusting 23 13.9
2019-Dec-10 12:43 017 9 gusting 19 13.9
2019-Dec-10 12:38 355 9 gusting 19 13.9
2019-Dec-10 12:33 335 6 gusting 17 13.9
2019-Dec-10 12:28 316 5 gusting 12 13.9
2019-Dec-10 12:23 019 6 gusting 11 13.9
2019-Dec-10 12:18 323 6 gusting 19 13.9
2019-Dec-10 12:13 355 6 gusting 19 14.4
2019-Dec-10 12:08 278 5 gusting 13 14.4
2019-Dec-10 12:03 292 6 gusting 15 14.4
2019-Dec-10 11:58 016 6 gusting 15 14.4
2019-Dec-10 11:53 005 6 gusting 15 14.4
2019-Dec-10 11:48 336 5 gusting 15 14.4
2019-Dec-10 11:43 028 6 gusting 18 14.4
2019-Dec-10 11:38 045 7 gusting 18 14.4
2019-Dec-10 11:33 350 6 gusting 16 14.4
2019-Dec-10 11:28 059 5 gusting 18 14.4
2019-Dec-10 11:23 069 6 gusting 18 14.4
2019-Dec-10 11:18 028 6 gusting 18 14.4
2019-Dec-10 11:13 293 7 gusting 18 14.4
2019-Dec-10 11:08 024 7 gusting 16 15.0
2019-Dec-10 11:03 022 7 gusting 16 15.0
2019-Dec-10 10:58 355 7 gusting 16 15.0
2019-Dec-10 10:53 351 6 gusting 16 15.0
2019-Dec-10 10:48 355 6 gusting 16 15.0
2019-Dec-10 10:43 281 7 gusting 17 15.6
2019-Dec-10 10:38 015 6 gusting 17 15.6
2019-Dec-10 10:33 348 6 gusting 15 15.6
2019-Dec-10 10:28 325 7 gusting 15 15.6
2019-Dec-10 10:23 329 7 gusting 15 15.6
2019-Dec-10 10:18 333 6 gusting 15 16.1
2019-Dec-10 10:13 005 4 gusting 11 16.1
2019-Dec-10 10:08 015 5 gusting 13 16.1
2019-Dec-10 10:03 355 4 gusting 13 16.1
2019-Dec-10 09:58 346 4 gusting 9 16.1
2019-Dec-10 09:53 16.1
2019-Dec-10 09:48 019 6 gusting 12 16.1
2019-Dec-10 09:43 029 6 gusting 12 16.1
2019-Dec-10 09:38 035 6 gusting 13 16.1
2019-Dec-10 09:33 342 6 gusting 13 16.1
2019-Dec-10 09:28 337 6 gusting 13 16.7
2019-Dec-10 09:23 329 6 gusting 13 16.7
2019-Dec-10 09:17 331 7 gusting 14 16.7
2019-Dec-10 09:12 313 8 gusting 15 17.2
2019-Dec-10 09:07 330 7 gusting 15 18.3
2019-Dec-10 09:02 315 4 gusting 14 19.4
2019-Dec-10 08:57 295 1 gusting 6 21.1
2019-Dec-10 08:52 136 0 gusting 2 21.1
2019-Dec-10 08:47 136 0 gusting 3 21.1
2019-Dec-10 08:42 136 0 gusting 3 21.1
2019-Dec-10 08:37 261 0 gusting 2 21.1
2019-Dec-10 08:32 261 0 gusting 3 21.1
2019-Dec-10 08:27 161 0 gusting 3 21.1
2019-Dec-10 08:22 146 2 gusting 8 21.1
2019-Dec-10 08:17 225 3 gusting 8 21.7
2019-Dec-10 08:12 114 3 gusting 8 21.7
2019-Dec-10 08:07 159 2 gusting 6 21.7
2019-Dec-10 08:02 128 2 gusting 5 21.7
2019-Dec-10 07:57 184 2 gusting 5 21.7
2019-Dec-10 07:52 126 1 gusting 5 21.7
2019-Dec-10 07:47 140 0 gusting 4 21.7
2019-Dec-10 07:42 138 0 gusting 2 21.7
2019-Dec-10 07:37 138 21.1
2019-Dec-10 07:32 132 21.7
2019-Dec-10 07:27 132 0 gusting 1 21.1
2019-Dec-10 07:22 132 0 gusting 1 21.7
2019-Dec-10 07:17 132 0 gusting 1 21.1
2019-Dec-10 07:12 099 0 gusting 2 21.1
2019-Dec-10 07:07 099 0 gusting 2 21.1
2019-Dec-10 07:02 099 21.1
2019-Dec-10 06:57 099 21.1
2019-Dec-10 06:52 099 21.1
2019-Dec-10 06:47 099 21.1
2019-Dec-10 06:42 099 0 gusting 2 21.1
2019-Dec-10 06:37 099 0 gusting 2 21.1
2019-Dec-10 06:32 157 0 gusting 2 21.1
2019-Dec-10 06:27 157 0 gusting 2 21.1
2019-Dec-10 06:22 158 1 gusting 4 21.1
2019-Dec-10 06:17 157 1 gusting 4 21.1
2019-Dec-10 06:12 130 1 gusting 3 21.1
2019-Dec-10 06:07 126 1 gusting 3 21.7
2019-Dec-10 06:02 136 0 gusting 3 21.7
2019-Dec-10 05:57 101 21.1
2019-Dec-10 05:52 101 21.7
2019-Dec-10 05:47 101 0 gusting 1 21.7
2019-Dec-10 05:42 101 0 gusting 1 21.7
2019-Dec-10 05:37 101 0 gusting 1 21.7
2019-Dec-10 05:32 101 0 gusting 1 21.1
2019-Dec-10 05:27 101 0 gusting 2 21.1
2019-Dec-10 05:22 101 0 gusting 2 21.1
2019-Dec-10 05:17 101 0 gusting 2 21.1
2019-Dec-10 05:12 101 0 gusting 2 21.1
2019-Dec-10 05:07 101 21.1
2019-Dec-10 05:02 101 21.1
2019-Dec-10 04:57 101 21.1
2019-Dec-10 04:52 101 0 gusting 1 21.1
2019-Dec-10 04:47 101 0 gusting 1 21.1
2019-Dec-10 04:42 101 21.1
2019-Dec-10 04:37 101 21.1
2019-Dec-10 04:32 101 21.1
2019-Dec-10 04:27 101 21.1
2019-Dec-10 04:22 101 21.1
2019-Dec-10 04:17 101 21.1
2019-Dec-10 04:12 101 21.1
2019-Dec-10 04:07 101 21.7
2019-Dec-10 04:02 101 0 gusting 1 21.7
2019-Dec-10 03:57 101 0 gusting 2 21.7
2019-Dec-10 03:52 101 0 gusting 2 21.7
2019-Dec-10 03:47 101 0 gusting 2 21.7
2019-Dec-10 03:42 119 21.7
2019-Dec-10 03:37 119 0 gusting 1 21.7
2019-Dec-10 03:31 119 0 gusting 2 21.7
2019-Dec-10 03:26 119 0 gusting 2 21.7
2019-Dec-10 03:21 119 0 gusting 2 21.7
2019-Dec-10 03:16 119 0 gusting 2 21.7
2019-Dec-10 03:11 119 0 gusting 2 21.7
2019-Dec-10 03:06 119 0 gusting 2 21.7
2019-Dec-10 03:01 111 0 gusting 2 21.7
2019-Dec-10 02:56 125 1 gusting 3 21.7
2019-Dec-10 02:51 130 1 gusting 3 21.7
2019-Dec-10 02:46 117 1 gusting 2 21.7
2019-Dec-10 02:41 139 0 gusting 3 22.2
2019-Dec-10 02:36 138 22.2
2019-Dec-10 02:31 120 0 gusting 2 22.2
2019-Dec-10 02:26 154 1 gusting 5 22.2
2019-Dec-10 02:21 154 2 gusting 5 22.2
2019-Dec-10 02:16 146 1 gusting 4 22.2
2019-Dec-10 02:11 158 1 gusting 5 22.2
2019-Dec-10 02:06 121 2 gusting 6 22.2
2019-Dec-10 02:01 132 2 gusting 6 22.8
2019-Dec-10 01:56 140 2 gusting 5 22.8
2019-Dec-10 01:51 158 1 gusting 5 22.8
2019-Dec-10 01:46 110 1 gusting 5 22.8
2019-Dec-10 01:41 159 2 gusting 4 22.8
2019-Dec-10 01:36 145 1 gusting 4 22.8
2019-Dec-10 01:31 135 1 gusting 5 22.8
2019-Dec-10 01:26 159 1 gusting 5 22.8
2019-Dec-10 01:21 163 2 gusting 4 22.8
2019-Dec-10 01:16 142 1 gusting 6 22.8
2019-Dec-10 01:11 157 2 gusting 6 23.3
2019-Dec-10 01:06 155 3 gusting 5 23.3
2019-Dec-10 01:01 174 3 gusting 7 23.3
2019-Dec-10 00:56 153 2 gusting 7 23.3
2019-Dec-10 00:51 117 2 gusting 6 23.3
2019-Dec-10 00:46 152 2 gusting 6 23.3
2019-Dec-10 00:41 136 2 gusting 6 23.3
2019-Dec-10 00:36 123 2 gusting 6 23.3
2019-Dec-10 00:31 201 3 gusting 6 23.9
2019-Dec-10 00:26 163 3 gusting 7 23.9
2019-Dec-10 00:21 148 3 gusting 7 23.9
2019-Dec-10 00:16 182 2 gusting 6 23.9
2019-Dec-10 00:11 149 2 gusting 6 23.9
2019-Dec-10 00:06 133 3 gusting 6 23.9
2019-Dec-10 00:01 166 3 gusting 8 23.9
2019-Dec-09 23:56 189 4 gusting 8 23.9
2019-Dec-09 23:51 210 4 gusting 9 24.4
2019-Dec-09 23:46 157 4 gusting 10 24.4
2019-Dec-09 23:41 173 4 gusting 10 24.4
2019-Dec-09 23:36 146 3 gusting 8 24.4
2019-Dec-09 23:31 165 4 gusting 8 25.0
2019-Dec-09 23:26 176 4 gusting 8 25.0
2019-Dec-09 23:21 228 4 gusting 11 25.0
2019-Dec-09 23:16 127 4 gusting 11 25.0
2019-Dec-09 23:11 185 4 gusting 9 25.6
2019-Dec-09 23:06 200 4 gusting 12 25.6
2019-Dec-09 23:01 198 4 gusting 12 25.6
2019-Dec-09 22:56 185 5 gusting 12 25.6
2019-Dec-09 22:51 173 5 gusting 12 25.6
2019-Dec-09 22:46 157 4 gusting 9 25.6
2019-Dec-09 22:41 184 4 gusting 9 26.1
2019-Dec-09 22:36 218 5 gusting 12 26.1
2019-Dec-09 22:31 172 5 gusting 12 26.1
2019-Dec-09 22:26 180 5 gusting 11 26.1
2019-Dec-09 22:21 200 6 gusting 11 26.1
2019-Dec-09 22:16 172 6 gusting 13 26.1
2019-Dec-09 22:11 193 6 gusting 13 26.1
2019-Dec-09 22:06 166 6 gusting 13 26.7
2019-Dec-09 22:01 180 6 gusting 13 26.1
2019-Dec-09 21:56 146 6 gusting 12 26.7
2019-Dec-09 21:51 209 5 gusting 12 26.7
2019-Dec-09 21:46 190 5 gusting 12 26.7
2019-Dec-09 21:41 161 5 gusting 10 26.7
2019-Dec-09 21:36 194 6 gusting 14 26.7
2019-Dec-09 21:31 242 6 gusting 15 27.2
2019-Dec-09 21:26 161 5 gusting 15 27.2
2019-Dec-09 21:21 209 6 gusting 13 27.2
2019-Dec-09 21:16 200 6 gusting 13 27.8
2019-Dec-09 21:10 185 6 gusting 14 27.8
2019-Dec-09 21:05 182 6 gusting 14 27.2
2019-Dec-09 21:00 192 5 gusting 13 27.2